Location: ??????
(41.3164°N, 22.6615°E)
Time: 01:30:40
(UTC+00:00)

Okean-O - Pass Details

Date: 16 October 2021
Orbit: 639 x 640 km, 98.2° (Epoch: 02 December)

Event Time Altitude Azimuth Distance (km) Brightness Sun altitude
Exits shadow 16:30:02 11° 98° (E) 1,989 4.5 -8.9°
Maximum altitude 16:32:28 16° 63° (ENE) 1,690 4.2 -9.3°
Drops below altitude 10° 16:35:05 10° 27° (NNE) 2,040 4.9 -9.8°
Sets 16:38:04 0° 6° (N) 2,955 6.0 -10.4°
